Date,TemperatureHighF,TemperatureAvgF,TemperatureLowF,DewpointHighF,DewpointAvgF,DewpointLowF,HumidityHigh,HumidityAvg,HumidityLow,PressureMaxIn,PressureMinIn,WindSpeedMaxMPH,WindSpeedAvgMPH,GustSpeedMaxMPH,PrecipitationSumIn
2013-1-1,51,46,42,50,44,32,97,91,59,30.09,29.95,1,0,4,0.94
2013-1-2,46,39,37,45,36,34,97,90,84,30.18,29.99,5,0,11,0.23
2013-1-3,44,37,32,34,30,24,91,77,49,30.36,30.14,3,0,7,0.00
2013-1-4,45,33,25,28,24,22,90,71,44,30.43,30.33,4,0,8,0.00
2013-1-5,48,36,26,36,26,22,89,70,42,30.38,30.24,2,0,4,0.01
2013-1-6,47,41,37,40,36,30,96,84,66,30.29,30.14,3,0,8,0.07
2013-1-7,49,36,27,33,29,24,92,75,46,30.38,30.28,3,0,6,0.02
2013-1-8,56,40,27,43,34,25,94,81,56,30.38,30.27,2,0,4,0.00
2013-1-9,52,49,46,50,47,42,96,92,84,30.43,30.30,0,0,1,0.05
2013-1-10,63,55,48,56,52,47,98,89,75,30.43,30.12,2,0,5,0.02
2013-1-11,66,64,62,63,61,55,97,89,73,30.14,30.07,3,1,11,0.15
2013-1-12,72,66,63,65,62,57,97,88,72,30.12,30.00,2,0,8,0.12
2013-1-13,69,65,62,62,60,57,97,82,72,30.05,29.94,4,1,11,1.27
2013-1-14,59,44,38,58,43,37,97,96,94,30.25,30.05,4,1,9,2.64
2013-1-15,43,41,39,42,40,38,98,98,97,30.16,29.97,4,0,6,1.64
2013-1-16,49,44,42,48,44,41,98,97,94,30.06,29.92,3,0,8,0.34
2013-1-17,42,39,33,41,37,29,97,93,79,30.32,29.75,4,1,10,0.46
2013-1-18,48,35,28,33,29,26,96,80,47,30.52,30.32,2,0,5,0.02
2013-1-19,53,38,26,34,29,24,96,73,43,30.42,30.20,5,0,10,0.01
2013-1-20,57,43,34,38,32,29,86,67,44,30.21,30.11,1,0,6,0.01
2013-1-21,47,36,27,33,23,15,95,64,30,30.23,30.09,5,1,12,0.00
2013-1-22,37,29,23,18,10,2,69,46,25,30.36,30.21,5,0,9,0.00
2013-1-23,49,37,30,30,18,7,70,46,37,30.36,30.13,3,0,9,0.00
2013-1-24,45,37,27,38,21,7,77,55,30,30.37,30.16,4,1,11,0.00
2013-1-25,35,32,27,34,25,9,97,76,43,30.34,30.10,3,0,10,0.03
2013-1-26,49,38,31,36,32,29,97,83,51,30.32,30.17,2,0,5,0.01
2013-1-27,50,39,28,38,32,27,94,77,57,30.42,30.31,2,0,5,0.00
2013-1-28,57,50,42,49,41,32,88,74,60,30.34,30.23,3,0,7,0.00
2013-1-29,66,53,43,62,50,41,97,90,81,30.24,29.87,3,0,8,0.02
2013-1-30,66,58,42,64,55,34,97,90,74,29.87,29.55,9,3,22,2.50
2013-1-31,46,41,35,35,26,22,82,56,40,30.09,29.79,6,2,17,0.13
2013-2-1,43,30,21,33,16,9,76,57,34,30.41,30.05,9,2,18,0.00
2013-2-2,37,30,21,34,23,15,94,78,64,30.36,30.09,3,0,9,0.01
2013-2-3,51,38,30,37,30,25,96,77,38,30.14,30.00,7,1,13,0.01
2013-2-4,49,37,26,31,26,23,91,68,40,30.14,29.97,2,0,6,0.01
2013-2-5,61,49,41,45,39,30,94,69,42,30.03,29.93,3,0,8,0.02
2013-2-6,64,46,32,44,36,30,99,72,29,30.19,30.03,1,0,4,0.01
2013-2-7,55,46,40,49,41,34,96,83,67,30.12,29.93,1,0,4,0.04
2013-2-8,56,46,36,50,41,30,97,84,57,30.25,29.90,8,1,16,0.08
2013-2-9,56,42,30,33,29,26,85,64,33,30.33,30.21,3,0,8,0.02
2013-2-10,61,48,38,52,40,31,96,77,36,30.23,29.97,4,0,11,0.59
2013-2-11,57,52,44,54,48,35,97,85,58,30.12,29.97,3,0,7,0.25
2013-2-12,51,45,37,41,35,30,91,70,46,30.15,29.85,1,0,4,0.05
2013-2-13,48,42,38,41,37,34,94,83,72,29.99,29.75,7,1,14,0.16
2013-2-14,56,44,37,38,34,30,84,69,46,30.08,29.99,2,0,9,0.03
2013-2-15,58,43,35,42,36,29,94,76,51,30.09,29.99,8,1,14,0.00
2013-2-16,38,33,27,30,22,12,84,66,41,30.15,30.01,7,1,13,0.00
2013-2-17,45,31,18,19,14,9,83,52,26,30.27,30.14,4,0,11,0.00
2013-2-18,60,43,26,33,24,17,76,49,30,30.29,30.01,5,1,16,0.00
2013-2-19,55,45,38,44,29,11,95,60,24,30.19,29.93,7,2,21,0.49
2013-2-20,40,33,24,21,18,12,84,55,31,30.24,30.16,2,0,8,0.01
2013-2-21,53,39,27,40,26,17,95,62,29,30.19,29.96,2,0,5,0.68
2013-2-22,51,46,41,46,43,40,98,91,79,30.07,29.98,2,0,7,0.88
2013-2-23,55,47,44,48,45,41,98,93,76,30.02,29.83,2,0,4,0.28
2013-2-24,58,44,32,41,32,26,95,67,29,30.06,29.92,3,0,7,0.01
2013-2-25,59,46,36,44,33,27,76,62,38,30.01,29.75,2,0,7,0.00
2013-2-26,54,48,40,50,44,35,97,86,64,29.75,29.48,6,1,13,0.75
2013-2-27,55,44,39,38,35,31,89,70,48,29.88,29.73,5,2,12,0.04
2013-2-28,42,38,36,31,28,25,79,66,60,30.03,29.84,6,2,12,0.00
2013-3-1,41,38,35,32,30,27,89,74,66,30.02,29.98,3,1,7,0.00
2013-3-2,38,35,32,33,29,24,95,80,66,30.09,29.96,6,2,13,0.03
2013-3-3,39,32,26,25,20,17,77,62,46,30.11,30.06,8,2,15,0.01
2013-3-4,54,38,23,31,23,17,89,60,29,30.20,29.99,1,0,6,0.00
2013-3-5,57,49,38,54,42,27,94,75,51,30.03,29.65,9,2,21,0.61
2013-3-6,38,35,32,29,26,20,82,70,59,30.25,29.92,9,4,19,0.35
2013-3-7,46,37,31,32,29,26,82,72,53,30.33,30.22,3,0,8,0.00
2013-3-8,57,40,28,30,26,22,88,61,25,30.36,30.26,4,0,10,0.00
2013-3-9,60,47,33,36,30,27,82,56,35,30.30,30.16,3,0,7,0.00
2013-3-10,72,57,44,40,34,30,73,44,23,30.16,29.98,3,1,10,0.00
2013-3-11,63,57,46,55,50,40,96,79,52,29.99,29.76,4,1,12,0.94
2013-3-12,57,45,38,41,33,29,87,65,37,30.11,29.90,6,1,12,0.22
2013-3-13,47,44,32,32,26,19,69,51,35,30.34,30.11,8,3,19,0.00
2013-3-14,51,36,25,36,21,16,86,56,26,30.41,30.25,3,0,6,0.02
2013-3-15,73,52,32,46,38,31,96,66,34,30.28,29.96,5,1,16,0.02
2013-3-16,77,65,55,50,45,42,64,50,33,29.96,29.83,6,2,15,0.00
2013-3-17,72,63,53,54,48,44,75,60,46,29.99,29.89,4,1,11,0.00
2013-3-18,63,58,53,57,53,48,98,85,69,29.93,29.77,10,2,21,0.56
2013-3-19,60,49,36,52,33,19,98,59,23,30.15,29.88,6,2,17,0.19
2013-3-20,56,45,36,32,23,12,79,45,22,30.16,29.93,7,2,16,0.00
2013-3-21,45,34,24,29,16,9,78,49,29,30.05,29.95,6,1,13,0.00
2013-3-22,45,38,30,32,23,16,67,55,40,30.07,30.00,1,0,5,0.00
2013-3-23,55,45,39,46,40,32,95,82,65,30.04,29.78,2,0,5,0.14
2013-3-24,63,51,43,55,46,31,98,86,58,29.85,29.43,7,2,18,1.02
2013-3-25,43,37,33,31,25,23,68,63,57,30.08,29.68,8,4,19,0.09
2013-3-26,40,36,31,29,27,25,83,70,55,30.31,30.08,6,2,13,0.00
2013-3-27,52,39,27,28,25,21,88,62,31,30.37,30.27,6,1,12,0.00
2013-3-28,60,43,27,33,28,24,90,59,31,30.38,30.26,6,1,13,0.00
2013-3-29,54,43,32,42,34,28,88,74,46,30.37,30.23,2,0,4,0.00
2013-3-30,64,51,43,53,45,41,97,83,47,30.24,30.01,3,0,9,0.30
2013-3-31,64,58,54,59,54,-100,97,92,71,30.02,29.88,5,0,14,0.68
2013-4-1,68,54,40,55,45,38,99,75,42,30.09,29.91,6,1,15,0.07
2013-4-2,56,47,37,38,28,22,76,51,28,30.25,30.09,3,0,6,0.00
2013-4-3,57,49,39,32,26,22,62,42,28,30.25,30.16,2,0,7,0.00
2013-4-4,50,44,41,44,40,27,97,89,41,30.17,29.99,0,0,3,1.11
2013-4-5,66,51,41,46,40,32,97,72,29,30.11,29.99,3,0,10,0.05
2013-4-6,73,55,36,45,38,34,95,59,28,30.20,30.07,6,1,13,0.01
2013-4-7,76,63,53,51,44,37,64,51,34,30.19,30.06,5,1,9,0.00
2013-4-8,78,68,58,57,52,46,76,57,42,30.14,30.04,4,1,11,0.00
2013-4-9,81,68,56,61,55,51,87,64,45,30.21,30.06,3,1,11,0.00
2013-4-10,84,73,63,62,57,54,78,59,42,30.14,29.91,4,1,10,0.00
2013-4-11,82,70,62,66,59,55,97,70,49,29.93,29.66,4,1,15,1.51
2013-4-12,67,59,51,61,47,37,97,67,35,29.98,29.58,4,2,13,1.61
2013-4-13,73,57,41,46,40,33,96,60,25,30.10,29.98,3,0,7,0.09
2013-4-14,65,53,43,55,47,41,95,81,48,30.06,29.94,3,0,8,0.09
2013-4-15,77,64,54,60,56,53,97,77,50,30.12,29.94,3,1,8,0.01
2013-4-16,81,69,56,66,61,54,95,76,56,30.25,30.12,3,1,10,0.00
2013-4-17,84,68,62,69,62,58,96,84,52,30.23,30.06,2,0,9,2.19
2013-4-18,81,67,58,66,60,57,98,80,46,30.09,29.84,3,0,8,2.18
2013-4-19,73,59,45,64,51,34,96,75,59,30.12,29.70,4,2,13,1.20
2013-4-20,62,48,34,40,34,30,95,62,30,30.29,30.12,4,1,12,0.05
2013-4-21,69,54,41,45,39,35,87,60,33,30.38,30.24,3,0,6,0.00
2013-4-22,72,57,42,49,43,39,93,63,32,30.34,30.15,2,0,6,0.00
2013-4-23,75,60,45,54,46,38,91,63,39,30.24,30.05,2,0,7,0.00
2013-4-24,70,60,49,64,54,44,95,79,61,30.24,30.04,3,1,9,0.18
2013-4-25,66,52,39,45,38,32,95,64,29,30.36,30.25,3,0,6,0.07
2013-4-26,71,56,40,49,41,35,91,62,30,30.39,30.28,2,0,4,0.01
2013-4-27,56,54,51,55,52,49,98,96,78,30.39,30.12,1,0,3,0.69
2013-4-28,59,56,53,58,54,-100,98,98,97,30.13,29.96,1,0,6,1.35
2013-4-29,73,62,55,60,56,54,98,84,57,30.06,29.96,1,0,5,0.01
2013-4-30,78,62,48,61,55,47,98,79,51,30.10,29.98,2,0,5,0.00
2013-5-1,71,63,57,59,57,55,96,83,67,30.20,30.10,0,0,2,0.00
2013-5-2,76,66,57,62,56,51,88,72,53,30.20,30.11,2,0,11,0.00
2013-5-3,74,64,58,59,54,51,87,70,48,30.15,29.98,3,1,13,0.04
2013-5-4,63,56,52,55,52,45,98,86,60,29.98,29.90,3,0,10,1.81
2013-5-5,59,52,47,56,50,46,98,95,83,29.90,29.78,2,0,10,1.83
2013-5-6,58,51,45,51,48,44,98,91,72,29.93,29.80,2,0,7,0.50
2013-5-7,71,57,48,57,51,47,98,85,46,30.01,29.90,2,0,5,0.09
2013-5-8,75,61,52,63,56,51,98,86,56,30.09,29.97,2,0,8,0.09
2013-5-9,81,67,54,64,57,52,98,75,37,30.14,30.04,2,0,5,0.01
2013-5-10,74,66,59,63,57,-100,93,77,63,30.10,29.97,1,0,9,0.00
2013-5-11,75,66,58,65,60,52,93,81,63,30.02,29.91,2,0,7,0.12
2013-5-12,66,57,49,53,41,-100,92,60,30,30.16,30.02,3,1,7,0.08
2013-5-13,69,54,40,42,38,32,90,59,27,30.28,30.16,3,0,8,0.00
2013-5-14,81,61,42,60,48,39,93,66,42,30.26,30.07,2,0,7,0.00
2013-5-15,86,71,59,65,56,52,85,62,35,30.19,30.02,3,0,8,0.00
2013-5-16,82,66,59,67,36,-100,90,67,47,30.10,29.99,1,0,5,0.00
2013-5-17,80,69,61,66,55,-100,94,76,58,30.11,30.03,2,0,5,0.03
2013-5-18,76,69,64,69,66,63,98,90,79,30.09,30.02,1,0,5,0.44
2013-5-19,71,67,61,69,65,60,97,94,85,30.14,29.99,2,0,7,0.67
2013-5-20,84,68,56,74,63,55,99,86,60,30.15,30.02,2,0,5,0.01
2013-5-21,88,73,63,74,67,62,98,84,56,30.07,29.93,2,0,7,0.00
2013-5-22,85,72,66,70,66,64,95,82,51,29.99,29.88,3,0,8,0.04
2013-5-23,82,71,63,66,62,55,97,75,44,30.05,29.93,4,1,12,0.04
2013-5-24,73,63,56,56,51,45,93,67,40,30.27,30.04,2,0,7,0.00
2013-5-25,77,61,47,52,47,39,94,64,29,30.35,30.20,1,0,5,0.00
2013-5-26,79,64,51,56,52,44,95,68,30,30.30,30.19,2,0,4,0.00
2013-5-27,85,69,55,65,58,52,94,70,43,30.25,30.11,1,0,5,0.00
2013-5-28,86,75,67,65,61,59,80,63,41,30.21,30.10,2,0,6,0.00
2013-5-29,86,75,64,69,63,58,88,67,46,30.23,30.12,2,0,6,0.00
2013-5-30,84,73,63,71,64,60,94,75,57,30.25,30.12,1,0,6,0.00
2013-5-31,86,75,66,68,65,62,89,73,52,30.20,30.07,1,0,12,0.00
2013-6-1,86,75,69,74,68,63,95,77,56,30.10,29.99,2,0,8,0.10
2013-6-2,81,72,69,72,68,-100,97,90,64,30.01,29.90,1,0,4,0.94
2013-6-3,82,72,65,69,65,60,98,81,50,30.02,29.92,2,0,6,0.26
2013-6-4,83,71,60,66,62,59,95,75,46,30.06,29.99,2,0,4,0.00
2013-6-5,84,70,65,72,66,62,97,87,63,30.06,29.94,4,0,17,0.59
2013-6-6,82,72,64,72,67,63,98,87,62,29.96,29.77,2,0,4,0.49
2013-6-7,80,70,66,72,67,65,98,94,68,29.90,29.74,1,0,8,1.61
2013-6-8,80,70,64,70,66,63,99,88,59,30.09,29.89,1,0,3,0.36
2013-6-9,84,72,66,73,69,65,97,90,67,30.12,29.99,2,0,9,0.31
2013-6-10,83,74,67,70,68,65,97,83,59,30.02,29.92,2,0,7,0.67
2013-6-11,88,77,69,75,70,68,98,82,54,30.07,29.97,2,0,7,0.10
2013-6-12,91,80,71,77,73,69,96,81,56,30.10,29.99,2,0,6,0.01
2013-6-13,90,80,71,75,72,65,88,76,60,29.99,29.77,5,1,13,0.02
2013-6-14,84,72,62,66,62,58,94,72,47,30.05,29.91,1,0,6,0.01
2013-6-15,86,75,62,67,63,60,94,68,45,30.13,30.05,1,0,4,0.00
2013-6-16,87,74,64,72,66,61,97,79,54,30.16,30.01,2,0,4,0.23
2013-6-17,82,72,68,74,70,67,97,91,69,30.07,29.94,1,0,5,0.42
2013-6-18,79,72,67,73,70,64,100,93,80,29.96,29.88,2,0,6,0.68
2013-6-19,84,72,62,71,66,62,100,83,58,30.08,29.95,0,0,3,0.02
2013-6-20,86,72,64,70,66,63,100,84,54,30.20,30.08,1,0,4,0.00
2013-6-22,85,80,73,70,67,63,78,65,50,30.26,30.11,1,0,4,0.00
2013-6-23,84,74,66,73,68,63,98,82,62,30.23,30.12,2,0,4,0.20
2013-6-24,86,74,68,73,70,67,98,90,60,30.25,30.11,1,0,3,0.20
2013-6-25,84,76,71,78,71,68,94,86,73,30.20,30.06,0,0,2,0.00
2013-6-26,85,79,72,76,73,70,97,83,65,30.09,29.93,2,0,8,0.00
2013-6-27,87,78,75,77,73,71,96,85,68,29.98,29.83,1,0,5,0.32
2013-6-28,88,76,70,75,70,67,98,83,61,29.88,29.70,2,0,6,0.32
2013-6-29,85,77,69,70,64,58,97,69,41,29.76,29.69,3,0,9,0.01
2013-6-30,84,72,66,67,64,59,93,77,48,29.85,29.72,2,0,5,0.01
2013-7-1,82,70,64,71,66,62,98,88,59,29.90,29.80,1,0,5,0.06
2013-7-2,83,72,66,72,68,65,98,87,61,30.07,29.94,1,0,7,1.33
2013-7-3,72,70,68,71,69,67,98,97,92,30.18,30.08,0,0,6,1.17
2013-7-4,75,71,67,74,69,66,98,97,92,30.18,30.10,1,0,5,0.79
2013-7-5,75,71,68,73,69,67,98,96,85,30.21,30.12,0,0,3,0.47
2013-7-6,76,70,68,74,69,67,98,97,86,30.18,30.14,4,0,7,1.52
2013-7-7,75,71,68,74,70,67,98,98,96,30.20,30.12,1,0,4,2.47
2013-7-8,85,73,70,76,71,69,98,94,64,30.24,30.12,0,0,1,0.05
2013-7-9,86,76,72,77,74,71,98,92,71,30.21,30.09,1,0,3,0.03
2013-7-10,77,74,70,76,73,69,98,97,96,30.14,30.00,0,0,0,0.04
2013-7-11,85,74,69,76,71,68,98,91,69,30.03,29.91,1,0,3,0.10
2013-7-12,83,73,68,73,69,64,98,89,63,30.01,29.93,2,0,5,0.00
2013-7-13,83,74,64,73,69,63,96,84,65,30.10,29.98,1,0,5,0.00
2013-7-14,83,75,70,75,71,67,98,87,70,30.23,30.09,2,0,5,0.06
2013-7-15,86,74,68,74,69,66,95,85,66,30.32,30.22,1,0,4,0.05
2013-7-16,88,78,69,75,72,68,98,81,65,30.35,30.26,0,0,3,0.00
2013-7-17,88,76,70,77,72,69,98,89,68,30.33,30.20,0,0,2,0.19
2013-7-18,88,74,69,77,71,68,97,90,64,30.26,30.09,0,0,2,0.20
2013-7-19,81,76,70,75,72,69,98,89,75,30.15,30.01,0,0,2,0.00
2013-7-20,90,79,72,76,70,-100,95,79,48,30.07,29.93,1,0,5,0.00
2013-7-21,87,76,72,76,72,70,97,90,64,30.06,29.98,3,0,5,0.11
2013-7-22,85,73,70,75,70,68,98,92,67,30.03,29.89,2,0,9,0.26
2013-7-23,80,74,70,74,71,68,97,90,81,29.99,29.86,0,0,1,0.33
2013-7-24,83,76,71,75,72,68,98,88,67,29.93,29.86,1,0,3,0.01
2013-7-25,84,72,65,71,67,64,97,86,59,30.06,29.93,0,0,4,0.00
2013-7-26,86,73,63,74,66,62,96,82,50,30.10,30.01,2,0,7,0.00
2013-7-27,84,76,69,74,70,67,97,81,60,30.03,29.91,2,0,7,0.00
2013-7-28,83,73,67,70,67,61,97,82,55,30.10,29.95,3,0,6,0.01
2013-7-29,80,67,60,63,60,57,97,81,47,30.22,30.10,2,0,4,0.00
2013-7-30,84,71,62,69,64,61,97,80,51,30.26,30.14,0,0,2,0.00
2013-7-31,77,71,68,73,69,66,98,92,83,30.18,30.01,0,0,3,0.53
2013-8-1,84,75,71,73,71,69,98,87,62,30.02,29.98,3,0,7,0.12
2013-8-2,86,73,65,71,68,64,98,85,58,30.08,30.01,1,0,4,0.12
2013-8-3,82,76,68,73,70,66,97,83,65,30.09,30.03,1,0,5,0.00
2013-8-4,86,76,69,73,69,64,98,82,58,30.11,30.04,1,0,4,0.00
2013-8-5,86,72,62,69,63,60,96,76,44,30.11,30.01,2,0,4,0.00
2013-8-6,81,74,71,73,69,66,96,82,68,30.05,29.99,0,0,3,0.02
2013-8-7,82,74,71,76,72,69,98,93,78,30.07,29.99,1,0,6,0.13
2013-8-8,86,75,71,77,72,70,98,92,70,30.09,30.01,1,0,4,0.22
2013-8-9,90,77,71,78,74,70,99,91,63,30.10,30.02,1,0,5,0.24
2013-8-10,87,77,73,78,74,72,98,92,64,30.16,30.10,3,0,8,0.97
2013-8-11,88,79,72,78,74,71,98,86,68,30.19,30.09,2,0,4,0.05
2013-8-12,78,74,71,77,73,71,100,98,93,30.16,30.02,1,0,2,0.49
2013-8-13,85,75,71,75,69,-100,99,87,62,30.04,29.93,2,0,6,0.98
2013-8-21,79,73,70,74,72,70,99,96,82,30.26,30.16,0,0,3,0.08
2013-8-22,85,75,69,75,72,68,99,91,71,30.23,30.10,1,0,5,0.05
2013-8-23,85,74,68,75,70,68,99,89,64,30.14,30.04,0,0,3,0.00
2013-8-24,86,74,67,74,70,66,99,88,63,30.27,30.11,1,0,4,0.00
2013-8-25,83,72,64,70,62,-100,98,76,50,30.40,30.28,1,0,4,0.00
2013-8-26,82,72,63,68,65,62,98,79,57,30.37,30.19,1,0,3,0.00
2013-8-27,84,70,64,71,66,63,98,89,61,30.21,30.12,1,0,3,0.00
2013-9-7,86,72,62,71,66,62,99,83,55,30.18,30.05,2,0,6,0.00
2013-9-8,88,73,65,72,65,-100,98,81,51,30.07,29.99,1,0,4,0.00
2013-9-9,88,77,69,74,70,68,98,82,56,30.15,30.05,0,0,5,0.00
2013-9-10,88,76,68,72,70,67,98,81,54,30.27,30.16,1,0,4,0.00
2013-9-11,89,78,68,72,69,67,98,78,48,30.28,30.15,1,0,4,0.00
2013-9-12,89,77,69,72,69,66,97,78,51,30.16,29.96,3,0,10,0.00
2013-9-13,80,71,62,68,63,53,98,78,49,30.02,29.94,1,0,6,0.00
2013-9-14,82,69,58,59,56,52,83,65,43,30.11,30.01,1,0,3,0.00
2013-9-15,86,65,56,65,55,-100,98,78,45,30.19,30.11,1,0,4,0.00
2013-9-16,87,72,60,69,62,57,98,75,39,30.21,30.14,1,0,4,0.00
2013-10-2,82,70,59,67,64,58,98,81,56,30.22,30.10,1,0,2,0.00
2013-10-3,87,73,66,66,64,61,95,76,43,30.18,30.09,2,0,5,0.00
2013-10-4,87,70,59,67,63,57,98,81,50,30.21,30.12,1,0,4,0.00
2013-10-5,89,72,60,70,64,59,98,79,50,30.17,30.04,1,0,4,0.00
2013-10-6,69,65,63,65,63,61,96,92,84,30.05,29.91,0,0,2,0.01
2013-10-7,73,61,55,65,54,50,98,82,51,30.09,29.91,3,0,7,0.25
2013-10-8,78,61,49,60,53,46,93,77,50,30.17,30.08,1,0,3,0.02
2013-10-9,77,63,53,63,57,51,98,83,59,30.24,30.14,1,0,4,0.02
2013-10-10,77,65,56,62,58,54,98,79,55,30.20,30.08,2,0,5,0.00
2013-10-18,68,56,48,53,49,46,97,78,51,30.10,29.99,1,0,3,0.03
2013-10-19,68,56,49,56,50,45,95,83,59,30.07,29.94,2,0,8,0.00
2013-10-20,66,50,40,46,40,-100,97,75,42,30.13,30.05,1,0,3,0.00
2013-10-21,69,51,37,51,43,35,98,78,40,30.16,30.03,1,0,6,0.00
2013-10-22,69,59,54,54,51,48,92,75,55,30.06,29.90,2,0,5,0.00
2013-10-23,56,49,39,49,40,33,96,73,45,30.13,29.87,6,1,12,0.00
2013-10-24,58,46,37,42,38,33,93,75,48,30.30,30.11,1,0,5,0.00
2013-10-25,55,43,30,36,30,26,89,63,35,30.47,30.30,2,0,4,0.00
2013-10-26,62,42,28,36,31,26,96,69,35,30.37,30.16,1,0,8,0.00
2013-10-27,66,55,49,52,42,-100,82,65,52,30.18,30.12,1,0,4,0.00
2013-10-28,61,56,51,57,52,-100,97,89,80,30.30,30.15,1,0,4,0.02
2013-10-29,73,59,51,59,54,50,99,86,57,30.36,30.26,1,0,3,0.01
2013-10-30,79,64,57,60,57,55,95,79,50,30.31,30.16,1,0,4,0.00
2013-10-31,72,66,62,63,58,54,91,77,69,30.18,29.76,2,0,8,0.04
2013-11-1,72,65,57,65,55,45,96,73,44,29.87,29.72,2,0,10,0.41
2013-11-2,66,53,45,49,43,36,96,71,33,30.13,29.86,3,0,9,0.02
2013-11-3,62,47,38,44,37,-100,96,73,42,30.32,30.13,2,0,5,0.00
2013-11-4,68,50,35,44,38,33,97,68,34,30.43,30.32,1,0,4,0.00
2013-11-7,64,55,41,59,51,32,96,85,65,30.31,30.07,5,1,10,0.38
2013-11-8,58,45,35,34,29,23,82,58,26,30.41,30.29,2,0,6,0.01
2013-11-9,57,44,32,37,31,-100,92,66,40,30.35,30.23,1,0,5,5.80
2013-11-10,69,51,39,43,38,34,92,64,35,30.35,30.26,1,0,6,0.00
2013-11-11,67,49,34,38,32,28,84,55,26,30.35,30.19,1,0,5,0.00
2013-11-12,53,43,29,43,29,17,72,57,43,30.55,30.16,6,1,12,0.00
2013-11-13,48,33,25,22,19,16,78,58,29,30.65,30.48,2,0,7,0.00
2013-11-14,36,28,24,24,20,19,81,74,58,30.49,30.31,0,0,0,0.00
2013-11-15,52,31,31,42,5,-100,96,64,64,30.30,30.18,1,0,2,0.26
2013-11-16,63,50,43,57,46,-100,98,91,80,30.24,30.12,1,0,3,0.05
2013-11-17,68,64,59,65,60,55,98,89,76,30.12,29.89,2,0,8,0.24
2013-12-5,74,67,63,67,64,60,96,90,77,30.07,29.96,3,1,8,0.08
2013-12-6,68,54,39,67,53,38,98,96,91,30.20,29.91,3,0,7,1.12
2013-12-7,40,38,36,38,33,-100,97,90,86,30.41,30.21,1,0,6,0.01
2013-12-8,46,40,36,46,40,34,99,97,91,30.33,30.10,0,0,2,0.74
2013-12-9,53,47,41,50,46,38,99,94,82,30.18,30.06,3,0,11,0.46
2013-12-10,41,37,28,39,32,25,98,85,61,30.39,30.04,6,1,12,0.43
2013-12-11,49,34,24,32,27,22,97,77,42,30.48,30.36,2,0,6,0.01